This is the latest recevied weather packets stored in our database for station/object DG8SF-13. If no packets are shown the sender has not sent any weather packets the latest 10 day(s).
| Time | Temp. | Humidity | Pressure | Rain* | Wind** | Luminosity | Snow |
|---|---|---|---|---|---|---|---|
| 1777648182 | 23.33° C | 25% | 1023.5 hPa | 0 mm | - | - | - |
| 1777647871 | 23.89° C | 23% | 1023.6 hPa | 0 mm | - | - | - |
| 1777647560 | 23.33° C | 23% | 1023.6 hPa | 0 mm | - | - | - |
| 1777647248 | 23.89° C | 23% | 1023.6 hPa | 0 mm | - | - | - |
| 1777646937 | 23.33° C | 23% | 1023.6 hPa | 0 mm | - | - | - |
| 1777646623 | 23.33° C | 23% | 1023.5 hPa | 0 mm | - | - | - |
| 1777646313 | 22.78° C | 24% | 1023.6 hPa | 0 mm | - | - | - |
| 1777645999 | 22.78° C | 24% | 1023.6 hPa | 0 mm | - | - | - |
| 1777645688 | 23.33° C | 23% | 1023.5 hPa | 0 mm | - | - | - |
| 1777645375 | 23.33° C | 23% | 1023.7 hPa | 0 mm | - | - | - |
| 1777645065 | 23.89° C | 23% | 1023.6 hPa | 0 mm | - | - | - |
| 1777644751 | 22.78° C | 24% | 1023.8 hPa | 0 mm | - | - | - |
| 1777644439 | 23.33° C | 23% | 1023.8 hPa | 0 mm | - | - | - |
| 1777644127 | 23.33° C | 23% | 1023.9 hPa | 0 mm | - | - | - |
| 1777643816 | 23.89° C | 23% | 1023.9 hPa | 0 mm | - | - | - |
| 1777643503 | 23.33° C | 24% | 1024 hPa | 0 mm | - | - | - |
| 1777643193 | 22.78° C | 23% | 1024.2 hPa | 0 mm | - | - | - |
| 1777642880 | 23.33° C | 24% | 1024.3 hPa | 0 mm | - | - | - |
| 1777642568 | 22.78° C | 23% | 1024.2 hPa | 0 mm | - | - | - |
| 1777642259 | 23.33° C | 23% | 1024.3 hPa | 0 mm | - | - | - |
| 1777641944 | 23.33° C | 24% | 1024.3 hPa | 0 mm | - | - | - |
| 1777641632 | 23.33° C | 24% | 1024.4 hPa | 0 mm | - | - | - |
| 1777641320 | 22.78° C | 24% | 1024.5 hPa | 0 mm | - | - | - |
| 1777641007 | 22.78° C | 25% | 1024.5 hPa | 0 mm | - | - | - |
| 1777640698 | 22.78° C | 24% | 1024.5 hPa | 0 mm | - | - | - |
* Rain latest hour (hover to see other rain measurements)
** Current wind speed in m/s (hover to see current wind gust speed)